TimeEDT,TemperatureF,Dew PointF,Humidity,Sea Level PressureIn,VisibilityMPH,Wind Direction,Wind SpeedMPH,Gust SpeedMPH,PrecipitationIn,Events,Conditions,WindDirDegrees,DateUTC
12:53 AM,52.0,48.9,89,30.08,10.0,South,6.9,-,N/A,,Clear,170,2013-09-09 04:53:00
1:53 AM,53.1,48.9,86,30.07,10.0,South,9.2,-,N/A,,Clear,180,2013-09-09 05:53:00
2:53 AM,54.0,48.9,83,30.06,10.0,South,6.9,-,N/A,,Clear,170,2013-09-09 06:53:00
3:53 AM,54.0,50.0,86,30.05,10.0,South,6.9,-,N/A,,Clear,190,2013-09-09 07:53:00
4:53 AM,54.0,50.0,86,30.05,10.0,South,10.4,-,N/A,,Clear,180,2013-09-09 08:53:00
5:53 AM,54.0,48.9,83,30.04,10.0,SSE,5.8,-,N/A,,Clear,160,2013-09-09 09:53:00
6:53 AM,54.0,48.9,83,30.02,10.0,South,5.8,-,0.00,Rain,Light Rain,170,2013-09-09 10:53:00
7:53 AM,55.0,50.0,83,30.03,10.0,South,5.8,-,0.00,,Overcast,170,2013-09-09 11:53:00
8:53 AM,57.0,51.1,81,30.02,10.0,South,4.6,-,N/A,,Overcast,170,2013-09-09 12:53:00
9:53 AM,59.0,53.1,81,30.02,10.0,South,5.8,-,N/A,,Overcast,190,2013-09-09 13:53:00
10:53 AM,60.1,54.0,80,30.01,10.0,South,8.1,-,N/A,,Overcast,170,2013-09-09 14:53:00
11:53 AM,64.0,55.0,73,30.00,10.0,SSW,11.5,-,N/A,,Overcast,200,2013-09-09 15:53:00
12:53 PM,64.9,57.0,75,29.99,10.0,South,10.4,-,N/A,,Overcast,170,2013-09-09 16:53:00
1:53 PM,70.0,61.0,73,29.97,10.0,SSW,10.4,-,N/A,,Overcast,210,2013-09-09 17:53:00
2:24 PM,69.8,62.6,78,29.95,10.0,SSW,9.2,-,N/A,,Overcast,200,2013-09-09 18:24:00
2:53 PM,72.0,63.0,73,29.93,10.0,South,8.1,-,N/A,,Overcast,190,2013-09-09 18:53:00
3:53 PM,72.0,64.0,76,29.90,10.0,South,11.5,-,N/A,,Overcast,170,2013-09-09 19:53:00
4:12 PM,73.4,64.4,73,29.88,10.0,South,11.5,18.4,N/A,,Scattered Clouds,180,2013-09-09 20:12:00
4:53 PM,73.9,64.0,71,29.88,10.0,SSW,10.4,-,N/A,,Partly Cloudy,200,2013-09-09 20:53:00
5:53 PM,72.0,64.9,78,29.85,10.0,South,13.8,-,N/A,,Clear,180,2013-09-09 21:53:00
6:53 PM,71.1,66.0,84,29.84,10.0,South,8.1,-,0.00,Rain,Light Rain,190,2013-09-09 22:53:00
7:53 PM,70.0,66.0,87,29.83,10.0,SSW,10.4,-,0.00,,Partly Cloudy,200,2013-09-09 23:53:00
8:53 PM,70.0,66.0,87,29.83,10.0,South,8.1,-,N/A,,Partly Cloudy,180,2013-09-10 00:53:00
9:53 PM,70.0,66.9,90,29.82,10.0,South,10.4,-,N/A,,Clear,180,2013-09-10 01:53:00
10:53 PM,69.1,66.9,93,29.80,9.0,South,10.4,-,N/A,,Partly Cloudy,190,2013-09-10 02:53:00
11:53 PM,71.1,68.0,90,29.78,8.0,SSW,10.4,20.7,N/A,,Clear,200,2013-09-10 03:53:00